01.05.2024;22:00;16
01.05.2024;21:00;6
01.05.2024;20:00;6
01.05.2024;19:00;6
01.05.2024;18:00;4
01.05.2024;17:00;4
01.05.2024;16:00;3
01.05.2024;15:00;3
01.05.2024;14:00;4
01.05.2024;13:00;10
01.05.2024;12:00;11
01.05.2024;11:00;11
01.05.2024;10:00;12
01.05.2024;09:00;16
01.05.2024;08:00;27
01.05.2024;07:00;30
01.05.2024;06:00;28
01.05.2024;05:00;12
01.05.2024;04:00;9
01.05.2024;03:00;13
01.05.2024;02:00;20
01.05.2024;01:00;15
01.05.2024;00:00;27
30.04.2024;23:00;30
30.04.2024;22:00;34
30.04.2024;21:00;23
30.04.2024;20:00;20
30.04.2024;19:00;6
30.04.2024;18:00;5
30.04.2024;17:00;8
30.04.2024;16:00;6
30.04.2024;15:00;4
30.04.2024;14:00;4
30.04.2024;13:00;5
30.04.2024;12:00;9
30.04.2024;11:00;12
30.04.2024;10:00;15
30.04.2024;09:00;25
30.04.2024;08:00;34
30.04.2024;07:00;26
30.04.2024;06:00;21
30.04.2024;05:00;9
30.04.2024;04:00;11
30.04.2024;03:00;10
30.04.2024;02:00;18
30.04.2024;01:00;19
30.04.2024;00:00;22
29.04.2024;23:00;31
